Year,Month,Day,Hour,Minute,Value (Times are PST for temperature in C)
2016,07,20,00,00,17.60
2016,07,20,00,01,17.60
2016,07,20,00,02,17.60
2016,07,20,00,03,17.60
2016,07,20,00,04,17.60
2016,07,20,00,05,17.60
2016,07,20,00,06,17.60
2016,07,20,00,07,17.60
2016,07,20,00,08,17.60
2016,07,20,00,09,17.60
2016,07,20,00,10,17.60
2016,07,20,00,11,17.60
2016,07,20,00,12,17.60
2016,07,20,00,13,17.50
2016,07,20,00,14,17.50
2016,07,20,00,15,17.50
2016,07,20,00,16,17.50
2016,07,20,00,17,17.40
2016,07,20,00,18,17.40
2016,07,20,00,19,17.40
2016,07,20,00,20,17.40
2016,07,20,00,21,17.40
2016,07,20,00,22,17.40
2016,07,20,00,23,17.40
2016,07,20,00,24,17.30
2016,07,20,00,25,17.30
2016,07,20,00,26,17.30
2016,07,20,00,27,17.30
2016,07,20,00,28,17.20
2016,07,20,00,29,17.20
2016,07,20,00,30,17.20
2016,07,20,00,31,17.20
2016,07,20,00,32,17.10
2016,07,20,00,33,17.10
2016,07,20,00,34,17.00
2016,07,20,00,35,17.00
2016,07,20,00,36,17.00
2016,07,20,00,37,17.00
2016,07,20,00,38,16.90
2016,07,20,00,39,16.90
2016,07,20,00,40,16.90
2016,07,20,00,41,16.90
2016,07,20,00,42,16.90
2016,07,20,00,43,16.90
2016,07,20,00,44,16.90
2016,07,20,00,45,16.80
2016,07,20,00,46,16.80
2016,07,20,00,47,16.80
2016,07,20,00,48,16.80
2016,07,20,00,49,16.80
2016,07,20,00,50,16.80
2016,07,20,00,51,16.70
2016,07,20,00,52,16.70
2016,07,20,00,53,16.70
2016,07,20,00,54,16.70
2016,07,20,00,55,16.70
2016,07,20,00,56,16.70
2016,07,20,00,57,16.60
2016,07,20,00,58,16.60
2016,07,20,00,59,16.60
2016,07,20,01,00,16.50
2016,07,20,01,01,16.50
2016,07,20,01,02,16.50
2016,07,20,01,03,16.40
2016,07,20,01,04,16.40
2016,07,20,01,05,16.40
2016,07,20,01,06,16.40
2016,07,20,01,07,16.30
2016,07,20,01,08,16.30
2016,07,20,01,09,16.30
2016,07,20,01,10,16.30
2016,07,20,01,11,16.30
2016,07,20,01,12,16.20
2016,07,20,01,13,16.20
2016,07,20,01,14,16.20
2016,07,20,01,15,16.20
2016,07,20,01,16,16.20
2016,07,20,01,17,16.20
2016,07,20,01,18,16.20
2016,07,20,01,19,16.10
2016,07,20,01,20,16.10
2016,07,20,01,21,16.10
2016,07,20,01,22,16.10
2016,07,20,01,23,16.10
2016,07,20,01,24,16.10
2016,07,20,01,25,16.00
2016,07,20,01,26,16.00
2016,07,20,01,27,16.00
2016,07,20,01,28,15.90
2016,07,20,01,29,15.90
2016,07,20,01,30,15.90
2016,07,20,01,31,15.90
2016,07,20,01,32,15.80
2016,07,20,01,33,15.80
2016,07,20,01,34,15.80
2016,07,20,01,35,15.70
2016,07,20,01,36,15.70
2016,07,20,01,37,15.70
2016,07,20,01,38,15.60
2016,07,20,01,39,15.60
2016,07,20,01,40,15.50
2016,07,20,01,41,15.50
2016,07,20,01,42,15.50
2016,07,20,01,43,15.50
2016,07,20,01,44,15.40
2016,07,20,01,45,15.40
2016,07,20,01,46,15.40
2016,07,20,01,47,15.40
2016,07,20,01,48,15.30
2016,07,20,01,49,15.30
2016,07,20,01,50,15.30
2016,07,20,01,51,15.30
2016,07,20,01,52,15.30
2016,07,20,01,53,15.30
2016,07,20,01,54,15.30
2016,07,20,01,55,15.20
2016,07,20,01,56,15.20
2016,07,20,01,57,15.20
2016,07,20,01,58,15.20
2016,07,20,01,59,15.10
2016,07,20,02,00,15.10
2016,07,20,02,01,15.10
2016,07,20,02,02,15.10
2016,07,20,02,03,15.10
2016,07,20,02,04,15.00
2016,07,20,02,05,15.00
2016,07,20,02,06,15.00
2016,07,20,02,07,15.00
2016,07,20,02,08,15.00
2016,07,20,02,09,14.90
2016,07,20,02,10,14.90
2016,07,20,02,11,14.90
2016,07,20,02,12,14.90
2016,07,20,02,13,14.90
2016,07,20,02,14,14.90
2016,07,20,02,15,14.90
2016,07,20,02,16,14.90
2016,07,20,02,17,14.90
2016,07,20,02,18,14.90
2016,07,20,02,19,14.90
2016,07,20,02,20,14.90
2016,07,20,02,21,14.90
2016,07,20,02,22,14.90
2016,07,20,02,23,14.90
2016,07,20,02,24,14.90
2016,07,20,02,25,14.90
2016,07,20,02,26,14.90
2016,07,20,02,27,14.90
2016,07,20,02,28,14.90
2016,07,20,02,29,14.80
2016,07,20,02,30,14.80
2016,07,20,02,31,14.80
2016,07,20,02,32,14.80
2016,07,20,02,33,14.80
2016,07,20,02,34,14.80
2016,07,20,02,35,14.80
2016,07,20,02,36,14.80
2016,07,20,02,37,14.80
2016,07,20,02,38,14.80
2016,07,20,02,39,14.80
2016,07,20,02,40,14.80
2016,07,20,02,41,14.80
2016,07,20,02,42,14.80
2016,07,20,02,43,14.80
2016,07,20,02,44,14.80
2016,07,20,02,45,14.80
2016,07,20,02,46,14.80
2016,07,20,02,47,14.80
2016,07,20,02,48,14.80
2016,07,20,02,49,14.80
2016,07,20,02,50,14.80
2016,07,20,02,51,14.80
2016,07,20,02,52,14.80
2016,07,20,02,53,14.80
2016,07,20,02,54,14.80
2016,07,20,02,55,14.80
2016,07,20,02,56,14.80
2016,07,20,02,57,14.80
2016,07,20,02,58,14.80
2016,07,20,02,59,14.90
2016,07,20,03,00,14.90
2016,07,20,03,01,14.90
2016,07,20,03,02,14.90
2016,07,20,03,03,14.90
2016,07,20,03,04,14.90
2016,07,20,03,05,14.90
2016,07,20,03,06,14.90
2016,07,20,03,07,14.90
2016,07,20,03,08,14.90
2016,07,20,03,09,14.90
2016,07,20,03,10,14.90
2016,07,20,03,11,14.90
2016,07,20,03,12,14.90
2016,07,20,03,13,14.90
2016,07,20,03,14,14.90
2016,07,20,03,15,15.00
2016,07,20,03,16,15.00
2016,07,20,03,17,15.00
2016,07,20,03,18,15.00
2016,07,20,03,19,15.00
2016,07,20,03,20,15.00
2016,07,20,03,21,15.00
2016,07,20,03,22,15.00
2016,07,20,03,23,15.00
2016,07,20,03,24,15.10
2016,07,20,03,25,15.10
2016,07,20,03,26,15.10
2016,07,20,03,27,15.00
2016,07,20,03,28,15.00
2016,07,20,03,29,15.00
2016,07,20,03,30,15.00
2016,07,20,03,31,15.00
2016,07,20,03,32,15.00
2016,07,20,03,33,15.00
2016,07,20,03,34,15.00
2016,07,20,03,35,15.00
2016,07,20,03,36,15.00
2016,07,20,03,37,15.00
2016,07,20,03,38,15.00
2016,07,20,03,39,15.00
2016,07,20,03,40,15.00
2016,07,20,03,41,15.00
2016,07,20,03,42,15.00
2016,07,20,03,43,15.00
2016,07,20,03,44,15.00
2016,07,20,03,45,15.00
2016,07,20,03,46,15.00
2016,07,20,03,47,15.00
2016,07,20,03,48,15.00
2016,07,20,03,49,15.00
2016,07,20,03,50,15.00
2016,07,20,03,51,15.00
2016,07,20,03,52,15.10
2016,07,20,03,53,15.10
2016,07,20,03,54,15.10
2016,07,20,03,55,15.10
2016,07,20,03,56,15.10
2016,07,20,03,57,15.10
2016,07,20,03,58,15.10
2016,07,20,03,59,15.10
2016,07,20,04,00,15.10
2016,07,20,04,01,15.10
2016,07,20,04,02,15.10
2016,07,20,04,03,15.10
2016,07,20,04,04,15.10
2016,07,20,04,05,15.10
2016,07,20,04,06,15.10
2016,07,20,04,07,15.00
2016,07,20,04,08,15.00
2016,07,20,04,09,15.00
2016,07,20,04,10,15.00
2016,07,20,04,11,15.00
2016,07,20,04,12,15.00
2016,07,20,04,13,15.00
2016,07,20,04,14,15.00
2016,07,20,04,15,15.00
2016,07,20,04,16,15.00
2016,07,20,04,17,15.00
2016,07,20,04,18,15.00
2016,07,20,04,19,15.00
2016,07,20,04,20,15.00
2016,07,20,04,21,15.00
2016,07,20,04,22,14.90
2016,07,20,04,23,14.90
2016,07,20,04,24,14.90
2016,07,20,04,25,14.90
2016,07,20,04,26,14.90
2016,07,20,04,27,14.90
2016,07,20,04,28,14.90
2016,07,20,04,29,14.90
2016,07,20,04,30,14.90
2016,07,20,04,31,14.90
2016,07,20,04,32,14.80
2016,07,20,04,33,14.80
2016,07,20,04,34,14.80
2016,07,20,04,35,14.80
2016,07,20,04,36,14.80
2016,07,20,04,37,14.80
2016,07,20,04,38,14.80
2016,07,20,04,39,14.80
2016,07,20,04,40,14.80
2016,07,20,04,41,14.80
2016,07,20,04,42,14.80
2016,07,20,04,43,14.80
2016,07,20,04,44,14.80
2016,07,20,04,45,14.80
2016,07,20,04,46,14.80
2016,07,20,04,47,14.80
2016,07,20,04,48,14.80
2016,07,20,04,49,14.80
2016,07,20,04,50,14.80
2016,07,20,04,51,14.80
2016,07,20,04,52,14.80
2016,07,20,04,53,14.80
2016,07,20,04,54,14.80
2016,07,20,04,55,14.80
2016,07,20,04,56,14.80
2016,07,20,04,57,14.80
2016,07,20,04,58,14.70
2016,07,20,04,59,14.70
2016,07,20,05,00,14.70
2016,07,20,05,01,14.70
2016,07,20,05,02,14.70
2016,07,20,05,03,14.70
2016,07,20,05,04,14.70
2016,07,20,05,05,14.70
2016,07,20,05,06,14.70
2016,07,20,05,07,14.70
2016,07,20,05,08,14.70
2016,07,20,05,09,14.60
2016,07,20,05,10,14.60
2016,07,20,05,11,14.60
2016,07,20,05,12,14.60
2016,07,20,05,13,14.60
2016,07,20,05,14,14.60
2016,07,20,05,15,14.60
2016,07,20,05,16,14.60
2016,07,20,05,17,14.60
2016,07,20,05,18,14.60
2016,07,20,05,19,14.50
2016,07,20,05,20,14.50
2016,07,20,05,21,14.50
2016,07,20,05,22,14.50
2016,07,20,05,23,14.50
2016,07,20,05,24,14.50
2016,07,20,05,25,14.50
2016,07,20,05,26,14.40
2016,07,20,05,27,14.40
2016,07,20,05,28,14.40
2016,07,20,05,29,14.40
2016,07,20,05,30,14.40
2016,07,20,05,31,14.40
2016,07,20,05,32,14.40
2016,07,20,05,33,14.40
2016,07,20,05,34,14.40
2016,07,20,05,35,14.40
2016,07,20,05,36,14.40
2016,07,20,05,37,14.40
2016,07,20,05,38,14.40
2016,07,20,05,39,14.30
2016,07,20,05,40,14.30
2016,07,20,05,41,14.30
2016,07,20,05,42,14.30
2016,07,20,05,43,14.30
2016,07,20,05,44,14.30
2016,07,20,05,45,14.30
2016,07,20,05,46,14.30
2016,07,20,05,47,14.30
2016,07,20,05,48,14.30
2016,07,20,05,49,14.30
2016,07,20,05,50,14.40
2016,07,20,05,51,14.40
2016,07,20,05,52,14.40
2016,07,20,05,53,14.40
2016,07,20,05,54,14.40
2016,07,20,05,55,14.40
2016,07,20,05,56,14.40
2016,07,20,05,57,14.30
2016,07,20,05,58,14.30
2016,07,20,05,59,14.30
2016,07,20,06,00,14.30
2016,07,20,06,01,14.30
2016,07,20,06,02,14.30
2016,07,20,06,03,14.30
2016,07,20,06,04,14.30
2016,07,20,06,05,14.30
2016,07,20,06,06,14.30
2016,07,20,06,07,14.30
2016,07,20,06,08,14.30
2016,07,20,06,09,14.30
2016,07,20,06,10,14.30
2016,07,20,06,11,14.30
2016,07,20,06,12,14.30
2016,07,20,06,13,14.30
2016,07,20,06,14,14.30
2016,07,20,06,15,14.30
2016,07,20,06,16,14.30
2016,07,20,06,17,14.30
2016,07,20,06,18,14.30
2016,07,20,06,19,14.30
2016,07,20,06,20,14.30
2016,07,20,06,21,14.30
2016,07,20,06,22,14.30
2016,07,20,06,23,14.30
2016,07,20,06,24,14.30
2016,07,20,06,25,14.40
2016,07,20,06,26,14.40
2016,07,20,06,27,14.40
2016,07,20,06,28,14.40
2016,07,20,06,29,14.40
2016,07,20,06,30,14.40
2016,07,20,06,31,14.40
2016,07,20,06,32,14.40
2016,07,20,06,33,14.50
2016,07,20,06,34,14.50
2016,07,20,06,35,14.50
2016,07,20,06,36,14.60
2016,07,20,06,37,14.60
2016,07,20,06,38,14.60
2016,07,20,06,39,14.60
2016,07,20,06,40,14.60
2016,07,20,06,41,14.60
2016,07,20,06,42,14.70
2016,07,20,06,43,14.70
2016,07,20,06,44,14.70
2016,07,20,06,45,14.70
2016,07,20,06,46,14.80
2016,07,20,06,47,14.80
2016,07,20,06,48,14.80
2016,07,20,06,49,14.80
2016,07,20,06,50,14.80
2016,07,20,06,51,14.90
2016,07,20,06,52,14.90
2016,07,20,06,53,14.90
2016,07,20,06,54,14.90
2016,07,20,06,55,15.00
2016,07,20,06,56,15.00
2016,07,20,06,57,15.10
2016,07,20,06,58,15.10
2016,07,20,06,59,15.10
2016,07,20,07,00,15.20
2016,07,20,07,01,15.20
2016,07,20,07,02,15.20
2016,07,20,07,03,15.30
2016,07,20,07,04,15.30
2016,07,20,07,05,15.40
2016,07,20,07,06,15.50
2016,07,20,07,07,15.60
2016,07,20,07,08,15.70
2016,07,20,07,09,15.80
2016,07,20,07,10,15.80
2016,07,20,07,11,15.90
2016,07,20,07,12,16.00
2016,07,20,07,13,16.10
2016,07,20,07,14,16.10
2016,07,20,07,15,16.20
2016,07,20,07,16,16.30
2016,07,20,07,17,16.40
2016,07,20,07,18,16.50
2016,07,20,07,19,16.50
2016,07,20,07,20,16.60
2016,07,20,07,21,16.70
2016,07,20,07,22,16.70
2016,07,20,07,23,16.80
2016,07,20,07,24,16.80
2016,07,20,07,25,16.90
2016,07,20,07,26,16.90
2016,07,20,07,27,17.00
2016,07,20,07,28,17.00
2016,07,20,07,29,17.10
2016,07,20,07,30,17.20
2016,07,20,07,31,17.20
2016,07,20,07,32,17.20
2016,07,20,07,33,17.30
2016,07,20,07,34,17.40
2016,07,20,07,35,17.40
2016,07,20,07,36,17.50
2016,07,20,07,37,17.60
2016,07,20,07,38,17.60
2016,07,20,07,39,17.70
2016,07,20,07,40,17.70
2016,07,20,07,41,17.90
2016,07,20,07,42,18.00
2016,07,20,07,43,18.10
2016,07,20,07,44,18.20
2016,07,20,07,45,18.30
2016,07,20,07,46,18.40
2016,07,20,07,47,18.40
2016,07,20,07,48,18.50
2016,07,20,07,49,18.60
2016,07,20,07,50,18.70
2016,07,20,07,51,18.70
2016,07,20,07,52,18.70
2016,07,20,07,53,18.70
2016,07,20,07,54,18.80
2016,07,20,07,55,18.80
2016,07,20,07,56,18.90
2016,07,20,07,57,19.00
2016,07,20,07,58,19.00
2016,07,20,07,59,19.10
2016,07,20,08,00,19.20
2016,07,20,08,01,19.20
2016,07,20,08,02,19.10
2016,07,20,08,03,19.10
2016,07,20,08,04,19.10
2016,07,20,08,05,19.20
2016,07,20,08,06,19.20
2016,07,20,08,07,19.30
2016,07,20,08,08,19.40
2016,07,20,08,09,19.50
2016,07,20,08,10,19.60
2016,07,20,08,11,19.70
2016,07,20,08,12,19.80
2016,07,20,08,13,20.00
2016,07,20,08,14,20.10
2016,07,20,08,15,20.20
2016,07,20,08,16,20.30
2016,07,20,08,17,20.40
2016,07,20,08,18,20.50
2016,07,20,08,19,20.50
2016,07,20,08,20,20.60
2016,07,20,08,21,20.70
2016,07,20,08,22,20.80
2016,07,20,08,23,20.90
2016,07,20,08,24,21.00
2016,07,20,08,25,21.00
2016,07,20,08,26,21.10
2016,07,20,08,27,21.20
2016,07,20,08,28,21.20
2016,07,20,08,29,21.20
2016,07,20,08,30,21.20
2016,07,20,08,31,21.20
2016,07,20,08,32,21.30
2016,07,20,08,33,21.20
2016,07,20,08,34,21.30
2016,07,20,08,35,21.30
2016,07,20,08,36,21.30
2016,07,20,08,37,21.30
2016,07,20,08,38,21.40
2016,07,20,08,39,21.40
2016,07,20,08,40,21.40
2016,07,20,08,41,21.20
2016,07,20,08,42,21.10
2016,07,20,08,43,21.00
2016,07,20,08,44,20.90
2016,07,20,08,45,20.80
2016,07,20,08,46,20.70
2016,07,20,08,47,20.60
2016,07,20,08,48,20.60
2016,07,20,08,49,20.50
2016,07,20,08,50,20.40
2016,07,20,08,51,20.40
2016,07,20,08,52,20.40
2016,07,20,08,53,20.30
2016,07,20,08,54,20.40
2016,07,20,08,55,20.40
2016,07,20,08,56,20.50
2016,07,20,08,57,20.60
2016,07,20,08,58,20.60
2016,07,20,08,59,20.60
2016,07,20,09,00,20.60
2016,07,20,09,01,20.60
2016,07,20,09,02,20.70
2016,07,20,09,03,20.70
2016,07,20,09,04,20.80
2016,07,20,09,05,20.80
2016,07,20,09,06,20.90
2016,07,20,09,07,21.10
2016,07,20,09,08,21.20
2016,07,20,09,09,21.30
2016,07,20,09,10,21.30
2016,07,20,09,11,21.40
2016,07,20,09,12,21.50
2016,07,20,09,13,21.60
2016,07,20,09,14,21.60
2016,07,20,09,15,21.50
2016,07,20,09,16,21.50
2016,07,20,09,17,21.40
2016,07,20,09,18,21.40
2016,07,20,09,19,21.30
2016,07,20,09,20,21.30
2016,07,20,09,21,21.30
2016,07,20,09,22,21.30
2016,07,20,09,23,21.30
2016,07,20,09,24,21.20
2016,07,20,09,25,21.10
2016,07,20,09,26,21.10
2016,07,20,09,27,21.10
2016,07,20,09,28,21.10
2016,07,20,09,29,21.10
2016,07,20,09,30,21.10
2016,07,20,09,31,21.10
2016,07,20,09,32,21.10
2016,07,20,09,33,21.20
2016,07,20,09,34,21.30
2016,07,20,09,35,21.30
2016,07,20,09,36,21.40
2016,07,20,09,37,21.50
2016,07,20,09,38,21.60
2016,07,20,09,39,21.70
2016,07,20,09,40,21.70
2016,07,20,09,41,21.70
2016,07,20,09,42,21.70
2016,07,20,09,43,21.70
2016,07,20,09,44,21.70
2016,07,20,09,45,21.60
2016,07,20,09,46,21.60
2016,07,20,09,47,21.50
2016,07,20,09,48,21.50
2016,07,20,09,49,21.50
2016,07,20,09,50,21.50
2016,07,20,09,51,21.50
2016,07,20,09,52,21.50
2016,07,20,09,53,21.50
2016,07,20,09,54,21.50
2016,07,20,09,55,21.50
2016,07,20,09,56,21.60
2016,07,20,09,57,21.60
2016,07,20,09,58,21.70
2016,07,20,09,59,21.70
2016,07,20,10,00,21.70
2016,07,20,10,01,21.70
2016,07,20,10,02,21.70
2016,07,20,10,03,21.80
2016,07,20,10,04,21.80
2016,07,20,10,05,21.90
2016,07,20,10,06,21.90
2016,07,20,10,07,22.00
2016,07,20,10,08,22.00
2016,07,20,10,09,22.10
2016,07,20,10,10,22.10
2016,07,20,10,11,22.10
2016,07,20,10,12,22.10
2016,07,20,10,13,22.10
2016,07,20,10,14,22.10
2016,07,20,10,15,22.00
2016,07,20,10,16,21.90
2016,07,20,10,17,21.80
2016,07,20,10,18,21.80
2016,07,20,10,19,21.70
2016,07,20,10,20,21.70
2016,07,20,10,21,21.70
2016,07,20,10,22,21.70
2016,07,20,10,23,21.70
2016,07,20,10,24,21.60
2016,07,20,10,25,21.60
2016,07,20,10,26,21.60
2016,07,20,10,27,21.60
2016,07,20,10,28,21.60
2016,07,20,10,29,21.70
2016,07,20,10,30,21.70
2016,07,20,10,31,21.70
2016,07,20,10,32,21.70
2016,07,20,10,33,21.70
2016,07,20,10,34,21.70
2016,07,20,10,35,21.70
2016,07,20,10,36,21.80
2016,07,20,10,37,21.80
2016,07,20,10,38,21.90
2016,07,20,10,39,22.00
2016,07,20,10,40,22.00
2016,07,20,10,41,22.10
2016,07,20,10,42,22.10
2016,07,20,10,43,22.10
2016,07,20,10,44,22.20
2016,07,20,10,45,22.20
2016,07,20,10,46,22.30
2016,07,20,10,47,22.30
2016,07,20,10,48,22.30
2016,07,20,10,49,22.30
2016,07,20,10,50,22.30
2016,07,20,10,51,22.20
2016,07,20,10,52,22.10
2016,07,20,10,53,22.00
2016,07,20,10,54,22.00
2016,07,20,10,55,22.00
2016,07,20,10,56,22.10
2016,07,20,10,57,22.00
2016,07,20,10,58,22.00
2016,07,20,10,59,22.00
2016,07,20,11,00,21.90
2016,07,20,11,01,21.90
2016,07,20,11,02,21.90
2016,07,20,11,03,21.90
2016,07,20,11,04,21.80
2016,07,20,11,05,21.70
2016,07,20,11,06,21.70
2016,07,20,11,07,21.60
2016,07,20,11,08,21.60
2016,07,20,11,09,21.60
2016,07,20,11,10,21.50
2016,07,20,11,11,21.40
2016,07,20,11,12,21.50
2016,07,20,11,13,21.60
2016,07,20,11,14,21.70
2016,07,20,11,15,21.90
2016,07,20,11,16,21.90
2016,07,20,11,17,21.90
2016,07,20,11,18,21.90
2016,07,20,11,19,21.80
2016,07,20,11,20,21.70
2016,07,20,11,21,21.70
2016,07,20,11,22,21.70
2016,07,20,11,23,21.70
2016,07,20,11,24,21.70
2016,07,20,11,25,21.70
2016,07,20,11,26,21.80
2016,07,20,11,27,21.90
2016,07,20,11,28,22.10
2016,07,20,11,29,22.10
2016,07,20,11,30,22.20
2016,07,20,11,31,22.30
2016,07,20,11,32,22.40
2016,07,20,11,33,22.50
2016,07,20,11,34,22.60
2016,07,20,11,35,22.60
2016,07,20,11,36,22.50
2016,07,20,11,37,22.50
2016,07,20,11,38,22.40
2016,07,20,11,39,22.30
2016,07,20,11,40,22.30
2016,07,20,11,41,22.40
2016,07,20,11,42,22.40
2016,07,20,11,43,22.50
2016,07,20,11,44,22.40
2016,07,20,11,45,22.40
2016,07,20,11,46,22.30
2016,07,20,11,47,22.30
2016,07,20,11,48,22.30
2016,07,20,11,49,22.30
2016,07,20,11,50,22.30
2016,07,20,11,51,22.30
2016,07,20,11,52,22.30
2016,07,20,11,53,22.30
2016,07,20,11,54,22.40
2016,07,20,11,55,22.40
2016,07,20,11,56,22.30
2016,07,20,11,57,22.20
2016,07,20,11,58,22.10
2016,07,20,11,59,22.00
2016,07,20,12,00,22.00
2016,07,20,12,01,22.10
2016,07,20,12,02,22.10
2016,07,20,12,03,22.20
2016,07,20,12,04,22.20
2016,07,20,12,05,22.20
2016,07,20,12,06,22.10
2016,07,20,12,07,22.20
2016,07,20,12,08,22.30
2016,07,20,12,09,22.40
2016,07,20,12,10,22.40
2016,07,20,12,11,22.30
2016,07,20,12,12,22.40
2016,07,20,12,13,22.50
2016,07,20,12,14,22.60
2016,07,20,12,15,22.60
2016,07,20,12,16,22.70
2016,07,20,12,17,22.70
2016,07,20,12,18,22.70
2016,07,20,12,19,22.80
2016,07,20,12,20,22.80
2016,07,20,12,21,22.90
2016,07,20,12,22,22.80
2016,07,20,12,23,22.80
2016,07,20,12,24,22.90
2016,07,20,12,25,23.00
2016,07,20,12,26,23.00
2016,07,20,12,27,22.90
2016,07,20,12,28,22.80
2016,07,20,12,29,22.80
2016,07,20,12,30,22.70
2016,07,20,12,31,22.70
2016,07,20,12,32,22.70
2016,07,20,12,33,22.70
2016,07,20,12,34,22.60
2016,07,20,12,35,22.60
2016,07,20,12,36,22.60
2016,07,20,12,37,22.50
2016,07,20,12,38,22.50
2016,07,20,12,39,22.60
2016,07,20,12,40,22.60
2016,07,20,12,41,22.60
2016,07,20,12,42,22.60
2016,07,20,12,43,22.60
2016,07,20,12,44,22.70
2016,07,20,12,45,22.70
2016,07,20,12,46,22.70
2016,07,20,12,47,22.70
2016,07,20,12,48,22.60
2016,07,20,12,49,22.50
2016,07,20,12,50,22.40
2016,07,20,12,51,22.40
2016,07,20,12,52,22.40
2016,07,20,12,53,22.40
2016,07,20,12,54,22.30
2016,07,20,12,55,22.30
2016,07,20,12,56,22.30
2016,07,20,12,57,22.40
2016,07,20,12,58,22.40
2016,07,20,12,59,22.40
2016,07,20,13,00,22.40
2016,07,20,13,01,22.40
2016,07,20,13,02,22.40
2016,07,20,13,03,22.50
2016,07,20,13,04,22.60
2016,07,20,13,05,22.60
2016,07,20,13,06,22.60
2016,07,20,13,07,22.60
2016,07,20,13,08,22.60
2016,07,20,13,09,22.60
2016,07,20,13,10,22.60
2016,07,20,13,11,22.60
2016,07,20,13,12,22.60
2016,07,20,13,13,22.60
2016,07,20,13,14,22.60
2016,07,20,13,15,22.60
2016,07,20,13,16,22.60
2016,07,20,13,17,22.60
2016,07,20,13,18,22.70
2016,07,20,13,19,22.70
2016,07,20,13,20,22.70
2016,07,20,13,21,22.70
2016,07,20,13,22,22.70
2016,07,20,13,23,22.80
2016,07,20,13,24,22.70
2016,07,20,13,25,22.70
2016,07,20,13,26,22.70
2016,07,20,13,27,22.70
2016,07,20,13,28,22.70
2016,07,20,13,29,22.70
2016,07,20,13,30,22.70
2016,07,20,13,31,22.80
2016,07,20,13,32,22.90
2016,07,20,13,33,23.00
2016,07,20,13,34,23.10
2016,07,20,13,35,23.10
2016,07,20,13,36,23.10
2016,07,20,13,37,23.10
2016,07,20,13,38,23.20
2016,07,20,13,39,23.20
2016,07,20,13,40,23.20
2016,07,20,13,41,23.20
2016,07,20,13,42,23.10
2016,07,20,13,43,23.00
2016,07,20,13,44,23.00
2016,07,20,13,45,23.00
2016,07,20,13,46,23.00
2016,07,20,13,47,23.00
2016,07,20,13,48,22.80
2016,07,20,13,49,22.70
2016,07,20,13,50,22.70
2016,07,20,13,51,22.70
2016,07,20,13,52,22.60
2016,07,20,13,53,22.70
2016,07,20,13,54,22.70
2016,07,20,13,55,22.70
2016,07,20,13,56,22.70
2016,07,20,13,57,22.70
2016,07,20,13,58,22.80
2016,07,20,13,59,22.80
2016,07,20,14,00,22.80
2016,07,20,14,01,22.80
2016,07,20,14,02,22.70
2016,07,20,14,03,22.80
2016,07,20,14,04,22.80
2016,07,20,14,05,22.90
2016,07,20,14,06,23.00
2016,07,20,14,07,23.10
2016,07,20,14,08,23.10
2016,07,20,14,09,23.10
2016,07,20,14,10,23.10
2016,07,20,14,11,23.00
2016,07,20,14,12,23.00
2016,07,20,14,13,22.90
2016,07,20,14,14,23.00
2016,07,20,14,15,23.10
2016,07,20,14,16,23.10
2016,07,20,14,17,23.10
2016,07,20,14,18,23.10
2016,07,20,14,19,23.10
2016,07,20,14,20,23.20
2016,07,20,14,21,23.20
2016,07,20,14,22,23.10
2016,07,20,14,23,23.10
2016,07,20,14,24,23.00
2016,07,20,14,25,23.00
2016,07,20,14,26,23.00
2016,07,20,14,27,23.10
2016,07,20,14,28,23.20
2016,07,20,14,29,23.20
2016,07,20,14,30,23.30
2016,07,20,14,31,23.40
2016,07,20,14,32,23.40
2016,07,20,14,33,23.40
2016,07,20,14,34,23.50
2016,07,20,14,35,23.50
2016,07,20,14,36,23.40
2016,07,20,14,37,23.40
2016,07,20,14,38,23.30
2016,07,20,14,39,23.20
2016,07,20,14,40,23.10
2016,07,20,14,41,23.10
2016,07,20,14,42,23.10
2016,07,20,14,43,23.10
2016,07,20,14,44,23.10
2016,07,20,14,45,23.20
2016,07,20,14,46,23.30
2016,07,20,14,47,23.30
2016,07,20,14,48,23.40
2016,07,20,14,49,23.40
2016,07,20,14,50,23.30
2016,07,20,14,51,23.30
2016,07,20,14,52,23.30
2016,07,20,14,53,23.20
2016,07,20,14,54,23.20
2016,07,20,14,55,23.20
2016,07,20,14,56,23.30
2016,07,20,14,57,23.40
2016,07,20,14,58,23.50
2016,07,20,14,59,23.50
2016,07,20,15,00,23.60
2016,07,20,15,01,23.60
2016,07,20,15,02,23.60
2016,07,20,15,03,23.60
2016,07,20,15,04,23.50
2016,07,20,15,05,23.40
2016,07,20,15,06,23.40
2016,07,20,15,07,23.30
2016,07,20,15,08,23.20
2016,07,20,15,09,23.10
2016,07,20,15,10,23.00
2016,07,20,15,11,23.00
2016,07,20,15,12,22.90
2016,07,20,15,13,22.90
2016,07,20,15,14,23.00
2016,07,20,15,15,23.00
2016,07,20,15,16,23.10
2016,07,20,15,17,23.10
2016,07,20,15,18,23.10
2016,07,20,15,19,23.10
2016,07,20,15,20,23.10
2016,07,20,15,21,23.20
2016,07,20,15,22,23.20
2016,07,20,15,23,23.30
2016,07,20,15,24,23.40
2016,07,20,15,25,23.40
2016,07,20,15,26,23.50
2016,07,20,15,27,23.50
2016,07,20,15,28,23.60
2016,07,20,15,29,23.60
2016,07,20,15,30,23.60
2016,07,20,15,31,23.60
2016,07,20,15,32,23.60
2016,07,20,15,33,23.60
2016,07,20,15,34,23.50
2016,07,20,15,35,23.50
2016,07,20,15,36,23.50
2016,07,20,15,37,23.50
2016,07,20,15,38,23.40
2016,07,20,15,39,23.50
2016,07,20,15,40,23.60
2016,07,20,15,41,23.60
2016,07,20,15,42,23.70
2016,07,20,15,43,23.70
2016,07,20,15,44,23.70
2016,07,20,15,45,23.70
2016,07,20,15,46,23.60
2016,07,20,15,47,23.50
2016,07,20,15,48,23.50
2016,07,20,15,49,23.40
2016,07,20,15,50,23.40
2016,07,20,15,51,23.40
2016,07,20,15,52,23.40
2016,07,20,15,53,23.40
2016,07,20,15,54,23.30
2016,07,20,15,55,23.40
2016,07,20,15,56,23.40
2016,07,20,15,57,23.40
2016,07,20,15,58,23.40
2016,07,20,15,59,23.40
2016,07,20,16,00,23.40
2016,07,20,16,01,23.40
2016,07,20,16,02,23.50
2016,07,20,16,03,23.50
2016,07,20,16,04,23.50
2016,07,20,16,05,23.50
2016,07,20,16,06,23.50
2016,07,20,16,07,23.40
2016,07,20,16,08,23.40
2016,07,20,16,09,23.40
2016,07,20,16,10,23.40
2016,07,20,16,11,23.40
2016,07,20,16,12,23.40
2016,07,20,16,13,23.50
2016,07,20,16,14,23.60
2016,07,20,16,15,23.70
2016,07,20,16,16,23.80
2016,07,20,16,17,23.80
2016,07,20,16,18,23.80
2016,07,20,16,19,23.80
2016,07,20,16,20,23.80
2016,07,20,16,21,23.90
2016,07,20,16,22,23.90
2016,07,20,16,23,23.90
2016,07,20,16,24,24.00
2016,07,20,16,25,24.10
2016,07,20,16,26,24.20
2016,07,20,16,27,24.20
2016,07,20,16,28,24.30
2016,07,20,16,29,24.30
2016,07,20,16,30,24.30
2016,07,20,16,31,24.20
2016,07,20,16,32,24.10
2016,07,20,16,33,24.10
2016,07,20,16,34,24.00
2016,07,20,16,35,24.10
2016,07,20,16,36,24.10
2016,07,20,16,37,24.20
2016,07,20,16,38,24.30
2016,07,20,16,39,24.30
2016,07,20,16,40,24.40
2016,07,20,16,41,24.40
2016,07,20,16,42,24.40
2016,07,20,16,43,24.40
2016,07,20,16,44,24.30
2016,07,20,16,45,24.30
2016,07,20,16,46,24.20
2016,07,20,16,47,24.20
2016,07,20,16,48,24.20
2016,07,20,16,49,24.10
2016,07,20,16,50,24.00
2016,07,20,16,51,23.90
2016,07,20,16,52,23.80
2016,07,20,16,53,23.70
2016,07,20,16,54,23.70
2016,07,20,16,55,23.70
2016,07,20,16,56,23.70
2016,07,20,16,57,23.70
2016,07,20,16,58,23.70
2016,07,20,16,59,23.70
2016,07,20,17,00,23.70
2016,07,20,17,01,23.80
2016,07,20,17,02,23.80
2016,07,20,17,03,23.80
2016,07,20,17,04,23.80
2016,07,20,17,05,23.70
2016,07,20,17,06,23.80
2016,07,20,17,07,23.80
2016,07,20,17,08,23.80
2016,07,20,17,09,23.80
2016,07,20,17,10,23.80
2016,07,20,17,11,23.80
2016,07,20,17,12,23.80
2016,07,20,17,13,23.80
2016,07,20,17,14,23.80
2016,07,20,17,15,23.80
2016,07,20,17,16,23.80
2016,07,20,17,17,23.90
2016,07,20,17,18,23.80
2016,07,20,17,19,23.90